User: anonymous   Login
Location: Unspecified
(0.0000°N, 0.0000°E)
Time: 14:16:11
(UTC+00:00)
Language:

UNISAT 6 - Orbit

View from above orbital plane
View from above orbital plane
View from above satellite
View from above satellite

Ground track
Ground track

The orbit data is extracted from the following two-line orbital elements,

1 40012U 14033C   18021.15669076  .00000180  00000-0  34567-4 0  9998
2 40012  97.8290 262.6834 0057613 313.8550  45.7905 14.73753826193045
Epoch (UTC): 21 January 2018 03:45:38
Eccentricity: 0.0057613
inclination: 97.8290°
perigee height: 608 km
apogee height: 689 km
right ascension of ascending node: 262.6834°
argument of perigee: 313.8550°
revolutions per day: 14.73753826
mean anomaly at epoch: 45.7905°
orbit number at epoch: 19304

The dashed part of the orbit path shows where the satellite is in the earth's shadow,  

DLR